World > North America > United States > New York   City of New York, NY

New York, New York Regional Weather

Lat: 40.71N, Lon: 74.01W
Wx Zone: NYZ072
Warning NWS WEATHER ALERT - STORM WARNING (More Info. Click Here) Warning
Feedback

New York, NY Regional Weather

Expires:202007100000;;594018
ASUS41 KOKX 092314
RWROKX

Regional Weather Roundup
National Weather Service New York NY
700 PM EDT THU JUL 09 2020

Note: "FAIR" indicates few or no clouds below 12,000 feet with no
significant weather and/or obstructions to visibility.


NYZ071-072-176-178-NJZ106-104-100000-
New York City Metro Area
  
CITY           SKY/WX    TMP DP  RH WIND       PRES   REMARKS
Central Park   SUNNY     81  70  69 VRB5      30.00                   
Bronx Lehman C   N/A     84  68  58 S9          N/A                   
LaGuardia Arpt MOSUNNY   85  68  56 S13       29.97S                  
Queens College   N/A     82  72  69 SE10        N/A                   
Kennedy Intl   MOSUNNY   81  72  74 SE13      29.99S                  
Breezy Point     N/A     79 N/A N/A SE9         N/A                   
Brooklyn Coll    N/A     79  73  83 SE13        N/A                   
Staten Island    N/A     79  73  83 SE9         N/A                   
Newark/Liberty MOSUNNY   83  71  67 VRB7      29.97S                  
Teterboro      SUNNY     85  67  54 S10       29.95S                  
$$
 

SKY/WX - Weather  TMP - Temperature  DP - Dew Point  RH - Relative Humidity
WIND - Wind Direction/Speed PRES - Barometric Pressure VSB - Visibility
WCI - Wind Chill Index E13G22 Wind - East Wind 13 mph/Gusts of 22 mph
New York Weather Map
UTC Time: 7/9/2020, 23:16
Your Time: